Weather in Ishtan

Russia / Tomsk District     57°09′28″N   84°07′49″E
temp.,
°C
wind,
m/s
gust,
m/s
humid.,
%
clouds,
%
prec.,
mm/h
press.,
hPa
HPBL,
m
17 april, sat
sat1701:00−2n588998 0.1 1018683
04:00−5n49785 0.1 1021675
07:00−7n46704 0.1 1024595
10:00−6n34510 0.0 1025746
13:00−2nw23410 0.0 1025976
16:00+1wsw24380 0.0 10241208
19:00+1sw455112 0.0 10221230
22:00−2ssw5117351 0.0 1021409
18 april, sun
sun1801:00−2ssw51274100 0.0 1019731
04:00−2ssw61370100 0.0 1015678
07:00−1ssw71572100 0.0 1012911
10:00+1sw61183100 0.6 10101019
13:00+2sw4888100 0.8 1009715
16:00+2s3797100 0.6 1007408
19:00+2ssw51397100 3.2 1003871
22:00+2ssw61398100 1.9 999852
19 april, mon
mon1901:00−5n91591100 3.9 1001944
04:00−8nnw91590100 1.2 10061053
07:00−11nw81479100 1.4 1013900
10:00−10nw71067100 0.0 10181103
13:00−7nw6956100 0.0 10201646
16:00−6wnw6857100 0.0 10211873
19:00−5nw595997 0.1 10221724
22:00−7wnw49675 0.1 1023951
20 april, tue
tue2001:00−9wnw5117833 0.1 1024697
04:00−9wnw4108894 0.0 1024815
07:00−9wnw5983100 0.1 1025786
10:00−7nw5666100 0.0 1025964
13:00−4nw4654100 0.0 10251433
16:00−2nw4549100 0.1 10241783
19:00−2wnw355493 0.1 10241351
22:00−5wsw228078 0.1 102455
21 april, wed
wed2101:00−6sw23855 0.1 102350
04:00−7ssw23875 0.0 102251
07:00−6s258453 0.0 1023162
10:00−2sse345235 0.0 10241045
13:00+1sse2340100 0.0 10251800
16:00+2ese2236100 0.0 10261949
19:00+2ene234740 0.0 1029237
22:00−2ne387724 0.0 1032158